This demonstration page uses our WeatherBlox Daily Observations layout. Learn more.

Left ArrowRight Arrow

Hourly Observations for May 9, 2015

Temp ( °F °C ) Dew Point ( °F °C ) Humidity (%) Winds ( mph kmh ) Pressure ( in mb ) Visibility ( mi km ) Precip ( " mm )
12:51 am 00:51 Clear 57 13.9 31 -0.6 37 37 WNW 15 24 29.80 1009 10 16 0.00 0.00
1:51 am 01:51 Clear 54 12.2 30 -1.1 40 40 NW 10 17 29.80 1009 10 16 0.00 0.00
2:51 am 02:51 Clear 53 11.7 28 -2.2 38 38 NW 12 19 29.80 1009 10 16 0.00 0.00
3:51 am 03:51 Clear 53 11.7 28 -2.2 38 38 WNW 8 13 29.83 1010 10 16 0.00 0.00
4:51 am 04:51 Clear 52 11.1 29 -1.7 41 41 WNW 16 26 29.85 1011 10 16 0.00 0.00
5:51 am 05:51 Sunny 51 10.6 32 0 48 48 NW 13 20 29.87 1012 10 16 0.00 0.00
6:51 am 06:51 Sunny 55 12.8 34 1.1 45 45 WNW 16 26 29.89 1012 10 16 0.00 0.00
7:51 am 07:51 Sunny 57 13.9 33 0.6 41 41 NW 14 22 29.90 1013 10 16 0.00 0.00
8:51 am 08:51 Sunny 60 15.6 33 0.6 36 36 NNW 17 28 29.90 1013 10 16 0.00 0.00
9:51 am 09:51 Sunny 62 16.7 32 0 32 32 NW 12 19 29.91 1013 10 16 0.00 0.00
10:51 am 10:51 Sunny 65 18.3 29 -1.7 26 26 NNW 16 26 29.90 1012 10 16 0.00 0.00
11:51 am 11:51 Sunny 66 18.9 29 -1.7 25 25 NW 16 26 29.88 1012 10 16 0.00 0.00
12:51 pm 12:51 Sunny 68 20 27 -2.8 21 21 NW 12 19 29.85 1011 10 16 0.00 0.00
1:51 pm 13:51 Sunny 70 21.1 25 -3.9 18 18 NW 13 20 29.84 1011 10 16 0.00 0.00
2:51 pm 14:51 Sunny 72 22.2 23 -5 16 16 NNW 10 17 29.81 1010 10 16 0.00 0.00
3:51 pm 15:51 Sunny 72 22.2 22 -5.6 15 15 NW 20 31 29.79 1009 10 16 0.00 0.00
4:51 pm 16:51 Sunny 72 22.2 20 -6.7 14 14 WNW 21 33 29.79 1009 10 16 0.00 0.00
5:51 pm 17:51 Sunny 70 21.1 18 -7.8 14 14 NW 18 30 29.79 1009 10 16 0.00 0.00
6:51 pm 18:51 Sunny 67 19.4 18 -7.8 15 15 NW 20 31 29.80 1009 10 16 0.00 0.00
7:51 pm 19:51 Clear 64 17.8 18 -7.8 17 17 NW 18 30 29.83 1010 10 16 0.00 0.00
8:51 pm 20:51 Clear 61 16.1 23 -5 23 23 NW 14 22 29.87 1011 10 16 0.00 0.00
9:51 pm 21:51 Clear 59 15 24 -4.4 26 26 NW 13 20 29.88 1012 10 16 0.00 0.00
10:51 pm 22:51 Clear 57 13.9 24 -4.4 28 28 NNW 8 13 29.89 1012 10 16 0.00 0.00
11:51 pm 23:51 Clear 55 12.8 25 -3.9 31 31 NNW 8 13 29.89 1012 10 16 0.00 0.00

Powered by AerisWeather